Location: Central Coast
(33.3208°S, 151.2336°E)
Time: 09:42:22
(UTC+10:00)

Vanguard 1 Rocket - Visible Passes

Search period start: 20 June 2018 00:00
Search period end: 30 June 2018 00:00
Orbit: 653 x 4224 km, 34.3° (Epoch: 19 June)

Date Brightness Start Highest point End Pass type
(mag) Time Alt. Az. Time Alt. Az. Time Alt. Az.
20 Jun 11.0 01:17:29 39° NE 01:17:29 39° NE 01:37:37 10° ESE visible
20 Jun 10.5 03:34:51 44° NW 03:46:57 74° NNE 04:09:24 10° ESE visible
20 Jun 10.4 05:53:58 10° W 06:20:45 87° S 06:37:38 10° E visible
21 Jun 11.5 00:11:02 21° ENE 00:11:02 21° ENE 00:20:24 10° E visible
21 Jun 10.6 02:28:22 59° N 02:31:45 61° NNE 02:55:45 10° ESE visible
21 Jun 10.5 04:45:43 26° WNW 05:05:18 89° NNE 05:25:24 10° E visible
22 Jun 10.9 01:21:44 44° ENE 01:21:44 44° ENE 01:41:00 10° ESE visible
22 Jun 10.5 03:39:04 50° NW 03:49:32 81° NNE 04:12:29 10° ESE visible
22 Jun 10.4 05:56:55 10° W 06:23:47 87° S 06:40:54 10° E visible
23 Jun 11.5 00:14:58 24° E 00:14:58 24° E 00:24:33 10° E visible
23 Jun 10.4 02:32:17 68° NNE 02:34:03 69° NNE 02:58:48 10° ESE visible
23 Jun 10.5 04:49:37 28° W 05:08:12 89° S 05:28:36 10° E visible
24 Jun 10.8 01:25:24 48° ENE 01:25:24 48° ENE 01:44:08 10° ESE visible
24 Jun 10.5 03:42:43 54° WNW 03:52:14 86° NNE 04:15:35 10° E visible
24 Jun 10.4 06:00:02 10° W 06:26:48 89° S 06:44:09 10° E visible
25 Jun 11.4 00:18:26 26° E 00:18:26 26° E 00:28:09 10° ESE visible
25 Jun 10.4 02:35:44 75° NNE 02:36:29 76° NNE 03:01:48 10° ESE visible
25 Jun 10.5 04:53:02 30° W 05:11:10 87° S 05:31:49 10° E visible
26 Jun 10.8 01:28:40 52° E 01:28:40 52° E 01:47:08 10° ESE visible
26 Jun 10.4 03:45:58 56° WNW 03:55:02 89° NNE 04:18:42 10° E visible
26 Jun 10.5 06:03:15 11° W 06:29:44 88° NNW 06:47:21 10° ENE visible
27 Jun 11.3 00:21:33 27° E 00:21:33 27° E 00:31:23 10° ESE visible
27 Jun 10.3 02:38:50 82° NNE 02:39:03 82° NNE 03:04:47 10° ESE visible
27 Jun 10.5 04:56:07 30° W 05:14:07 88° S 05:35:01 10° E visible
28 Jun 10.7 01:31:39 54° E 01:31:39 54° E 01:50:03 10° ESE visible
28 Jun 10.4 03:48:56 56° W 03:57:55 88° S 04:21:49 10° E visible
28 Jun 10.5 06:06:13 11° WSW 06:32:34 83° NNW 06:50:28 10° ENE visible
29 Jun 11.3 00:24:25 29° E 00:24:25 29° E 00:34:24 10° ESE visible
29 Jun 10.3 02:41:42 86° NNE 02:41:46 86° NNE 03:07:47 10° E visible
29 Jun 10.5 04:58:59 30° W 05:17:03 90° S 05:38:11 10° ENE visible
29 Jun 11.8 23:17:10 11° ESE 23:17:10 11° ESE 23:17:37 10° ESE visible
